Home > Weather > Odesa > Past weeks

Flag for Ukraine Past Weather in Odesa, Ukraine — Yesterday and Last 2 Weeks

Now
72 °F

Clear.


Feels Like: 76 °F
Forecast: 70 / 92 °F
Wind: 6 mph from North

Location: Odesa Airport

Current Time: Jul 30, 2016 at 2:56:45 AM

Latest Report: Jul 30, 2016 at 2:30 AM


Visibility: 10 mi

Pressure: 29.86 "Hg

Humidity: 61%

Dew Point: 57 °F

Location of OdesaLocation

Past Weather in Odesa — Graph

°F

Odesa Temperature Yesterday

Maximum temperature yesterday: 90 °F (at 12:30 PM)
Minimum temperature yesterday: 68 °F (at 5:30 AM)
Average temperature yesterday: 80 °F

High & Low Weather Summary for the Past Weeks

 TemperatureHumidityPressure
High95 °F (Jul 15, 2:00 PM)100% (Jul 17, 1:30 AM)30.01 "Hg (Jul 17, 1:30 AM)
Low55 °F (Jul 20, 4:30 AM)23% (Jul 15, 2:00 PM)29.65 "Hg (Jul 18, 3:00 AM)
Average76 °F56%29.88 "Hg
* Reported Jul 15 1:00 AM — Jul 30 1:30 AM, Odesa, Weather by CustomWeather, © 2016

Note: Actual official high and low records may vary slightly from our data, if they occured in-between our weather recording intervals... More about our weather records

Advertising

Odesa Weather History for the Previous 24 Hours

Scroll right to see more
 ConditionsComfort  
Time TempWeatherWind HumidityBarometerVisibility
1:30 AM
Sat, Jul 30
72 °FClear.3 mph61%29.86 "Hg10 mi
1:00 AM72 °FClear.3 mph65%29.86 "Hg6 mi
12:30 AM72 °FClear.1 mph65%29.89 "Hg5 mi
12:00 AM72 °FClear.No wind65%29.89 "Hg5 mi
11:30 PM
Fri, Jul 29
73 °FClear.1 mph61%29.89 "Hg5 mi
11:00 PM73 °FClear.3 mph61%29.89 "Hg5 mi
10:30 PM73 °FClear.3 mph61%29.89 "Hg2 mi
10:00 PM75 °FClear.6 mph57%29.89 "Hg4 mi
9:30 PM75 °FSunny.3 mph57%29.89 "Hg10 mi
9:00 PM81 °FSunny.No wind48%29.89 "Hg10 mi
8:30 PM81 °FSunny.No wind45%29.89 "Hg10 mi
8:00 PM82 °FSunny.No wind45%29.86 "Hg10 mi
7:30 PM84 °FSunny.3 mph40%29.86 "Hg10 mi
7:00 PM86 °FSunny.6 mph38%29.86 "Hg10 mi
6:30 PM88 °FSunny.6 mph35%29.86 "Hg10 mi
6:00 PM88 °FPassing clouds.6 mph35%29.86 "HgN/A
5:30 PM88 °FPassing clouds.8 mph35%29.86 "HgN/A
5:00 PM88 °FPassing clouds.8 mph35%29.89 "HgN/A
4:30 PM90 °FSunny.10 mph36%29.89 "Hg10 mi
4:00 PM90 °FSunny.10 mph33%29.89 "Hg10 mi
3:30 PM90 °FPassing clouds.8 mph33%29.92 "HgN/A
3:00 PM88 °FSunny.8 mph38%29.92 "Hg10 mi
2:30 PM90 °FPassing clouds.10 mph36%29.92 "HgN/A
2:00 PM90 °FSunny.10 mph33%29.92 "Hg10 mi
1:30 PM90 °FSunny.10 mph33%29.92 "Hg10 mi
1:00 PM90 °FSunny.10 mph31%29.92 "Hg10 mi
12:30 PM90 °FPassing clouds.10 mph29%29.95 "HgN/A
12:00 PM88 °FPassing clouds.8 mph29%29.95 "HgN/A
11:30 AM88 °FSunny.10 mph29%29.95 "Hg10 mi
11:00 AM88 °FPassing clouds.10 mph38%29.95 "HgN/A
10:30 AM86 °FPassing clouds.8 mph46%29.95 "HgN/A
10:00 AM84 °FPassing clouds.8 mph51%29.95 "HgN/A
9:30 AM84 °FPassing clouds.3 mph45%29.95 "HgN/A
9:00 AM84 °FPassing clouds.3 mph43%29.95 "HgN/A
8:30 AM82 °FSunny.1 mph48%29.95 "Hg10 mi
8:00 AM79 °FClear.1 mph58%29.95 "Hg6 mi
7:30 AM75 °FClear.No wind69%29.95 "Hg5 mi
7:00 AM72 °FClear.No wind78%29.95 "Hg4 mi
6:30 AM68 °FClear.No wind83%29.95 "Hg5 mi
6:00 AM70 °FClear.No wind78%29.95 "Hg5 mi
5:30 AM68 °FClear.No wind78%29.95 "Hg5 mi
5:00 AM70 °FClear.No wind73%29.92 "Hg6 mi
4:30 AM70 °FClear.1 mph73%29.92 "Hg10 mi
4:00 AM70 °FClear.1 mph73%29.95 "Hg10 mi
3:30 AM70 °FClear.No wind73%29.95 "Hg10 mi
3:00 AM70 °FClear.No wind73%29.92 "Hg10 mi
2:30 AM70 °FClear.No wind73%29.95 "Hg10 mi
2:00 AM72 °FClear.No wind69%29.95 "Hg10 mi
Weather by CustomWeather, © 2016

See weather overviewHow to use our weather pages